Phoenix-Mesa Gateway Airport, AZ

3:03 AM MST on January 24, 2018 (GMT -0700)
Phoenix-Mesa Gateway Airport

Weather History for KIWA - November, 2012

Change the Weather History Date:

Monday, November 5, 2012

  Actual Average Record
Temperature  
Mean Temperature 69 °F -  
Max Temperature 87 °F 75 °F 89 °F (2007)
Min Temperature 51 °F 51 °F 41 °F (2002)
Cooling Degree Days 4    
Growing Degree Days 19 (Base 50)    
Moisture  
Dew Point 27 °F    
Average Humidity 27    
Maximum Humidity 47    
Minimum Humidity 9    
Precipitation  
Precipitation 0.00 in - - ()
Sea Level Pressure  
Sea Level Pressure 30.07 in    
Wind  
Wind Speed 4 mph (SE)    
Max Wind Speed 7 mph    
Max Gust Speed -    
Visibility 12 miles    
Events      
Averages and records for this station are not official NWS values.
T = Trace of Precipitation, MM = Missing Value Source: NWS Daily Summary

Daily Weather History Graph

Daily Weather History Graph

Search for Another Location

Airport or City:

Trip Planner

Search our weather history database for the weather conditions in past years. The results will help you decide how hot, cold, wet, or windy it might be!

Date:

Astronomy

Nov. 05, 2012 Rise Set
Actual Time 6:49 AM MST 5:30 PM MST
Civil Twilight 6:23 AM MST 5:56 PM MST
Nautical Twilight 5:53 AM MST 6:26 PM MST
Astronomical Twilight 5:24 AM MST 6:55 PM MST
Moon 11:11 PM MST (11/5) 12:10 PM MST (11/5)
Length of Visible Light 11h 33m
Length of Day
10h 41m
Waning Gibbous, 62% of the Moon is Illuminated
Nov 5
Waning Gibbous
Nov 6
Last Quarter
Nov 13
New
Nov 20
First Quarter
Nov 28
Full

Hourly Weather History & Observations

Time (MST) Temp. Dew Point Humidity Pressure Visibility Wind Dir Wind Speed Gust Speed Precip Events Conditions
12:15 AM 60.8 °F 30.2 °F 31% 30.09 in 10.0 mi ESE 5.8 mph - N/A   Clear
12:35 AM 60.8 °F 26.6 °F 27% 30.09 in 10.0 mi East 6.9 mph - N/A   Clear
12:55 AM 60.8 °F 28.4 °F 29% 30.09 in 10.0 mi Calm Calm - N/A   Clear
1:15 AM 57.2 °F 30.2 °F 36% 30.09 in 10.0 mi Calm Calm - N/A   Clear
1:35 AM 57.2 °F 30.2 °F 36% 30.09 in 10.0 mi SSE 4.6 mph - N/A   Clear
1:55 AM 57.2 °F 30.2 °F 36% 30.09 in 10.0 mi SSW 3.5 mph - N/A   Clear
2:15 AM 57.2 °F 30.2 °F 36% 30.09 in 10.0 mi Calm Calm - N/A   Clear
2:35 AM 55.4 °F 32.0 °F 41% 30.08 in 10.0 mi SSW 3.5 mph - N/A   Clear
2:55 AM 57.2 °F 32.0 °F 38% 30.08 in 10.0 mi South 3.5 mph - N/A   Clear
3:15 AM 57.2 °F 32.0 °F 38% 30.08 in 10.0 mi Calm Calm - N/A   Clear
3:35 AM 57.2 °F 30.2 °F 36% 30.08 in 10.0 mi Calm Calm - N/A   Clear
3:55 AM 53.6 °F 32.0 °F 44% 30.08 in 10.0 mi Calm Calm - N/A   Clear
4:15 AM 53.6 °F 30.2 °F 41% 30.08 in 10.0 mi Calm Calm - N/A   Clear
4:35 AM 51.8 °F 32.0 °F 47% 30.08 in 10.0 mi SSE 4.6 mph - N/A   Clear
4:55 AM 51.8 °F 30.2 °F 44% 30.08 in 10.0 mi SE 4.6 mph - N/A   Clear
5:15 AM 51.8 °F 28.4 °F 41% 30.09 in 10.0 mi Calm Calm - N/A   Clear
5:47 AM 53.6 °F 24.8 °F 33% 30.09 in 20.0 mi ESE 4.6 mph - N/A   Clear
6:47 AM 51.8 °F 32.0 °F 47% 30.11 in 30.0 mi SE 4.6 mph - N/A   Clear
7:47 AM 55.4 °F 26.6 °F 33% 30.12 in 30.0 mi East 4.6 mph - N/A   Clear
8:47 AM 66.2 °F 24.8 °F 21% 30.14 in 30.0 mi East 5.8 mph - N/A   Clear
9:47 AM 73.4 °F 28.4 °F 19% 30.13 in 30.0 mi SE 4.6 mph - N/A   Clear
10:47 AM 78.8 °F 24.8 °F 14% 30.13 in 30.0 mi South 4.6 mph - N/A   Clear
11:47 AM 80.6 °F 24.8 °F 13% 30.11 in 30.0 mi Variable 3.5 mph - N/A   Clear
12:47 PM 84.2 °F 26.6 °F 12% 30.07 in 30.0 mi WSW 5.8 mph - N/A   Clear
1:47 PM 84.2 °F 24.8 °F 11% 30.04 in 30.0 mi WNW 5.8 mph - N/A   Clear
2:47 PM 87.8 °F 23.0 °F 9% 30.03 in 30.0 mi West 4.6 mph - N/A   Clear
3:47 PM 87.8 °F 23.0 °F 9% 30.02 in 30.0 mi West 4.6 mph - N/A   Clear
4:47 PM 86.0 °F 21.2 °F 9% 30.01 in 35.0 mi West 5.8 mph - N/A   Clear
5:48 PM 80.6 °F 23.0 °F 12% 30.02 in 20.0 mi WNW 3.5 mph - N/A   Clear
6:52 PM 78.8 °F 26.6 °F 15% 30.03 in 20.0 mi Calm Calm - N/A   Clear
7:50 PM 69.8 °F 26.6 °F 20% 30.04 in 20.0 mi ESE 3.5 mph - N/A   Clear
7:55 PM 69.8 °F 28.4 °F 21% 30.04 in 10.0 mi East 3.5 mph - N/A   Clear
8:15 PM 66.2 °F 26.6 °F 23% 30.04 in 10.0 mi East 5.8 mph - N/A   Clear
8:35 PM 64.4 °F 26.6 °F 24% 30.04 in 10.0 mi ESE 3.5 mph - N/A   Clear
8:47 PM 66.2 °F 24.8 °F 21% 30.05 in 20.0 mi SSE 3.5 mph - N/A   Clear
8:55 PM 62.6 °F 30.2 °F 30% 30.05 in 10.0 mi SE 3.5 mph - N/A   Clear
9:15 PM 64.4 °F 30.2 °F 28% 30.05 in 10.0 mi Calm Calm - N/A   Clear
9:35 PM 62.6 °F 28.4 °F 27% 30.05 in 10.0 mi SE 4.6 mph - N/A   Clear
9:55 PM 62.6 °F 24.8 °F 24% 30.05 in 10.0 mi East 6.9 mph - N/A   Clear
10:15 PM 62.6 °F 23.0 °F 22% 30.05 in 10.0 mi ESE 4.6 mph - N/A   Clear
10:35 PM 60.8 °F 28.4 °F 29% 30.05 in 10.0 mi SE 5.8 mph - N/A   Clear
10:55 PM 60.8 °F 21.2 °F 22% 30.05 in 10.0 mi East 6.9 mph - N/A   Clear
11:15 PM 60.8 °F 19.4 °F 20% 30.05 in 10.0 mi East 5.8 mph - N/A   Clear
11:35 PM 60.8 °F 21.2 °F 22% 30.05 in 10.0 mi East 6.9 mph - N/A   Clear
11:55 PM 60.8 °F 21.2 °F 22% 30.05 in 10.0 mi East 6.9 mph - N/A   Clear